TimeCST,TemperatureF,Dew PointF,Humidity,Sea Level PressureIn,VisibilityMPH,Wind Direction,Wind SpeedMPH,Gust SpeedMPH,PrecipitationIn,Events,Conditions,WindDirDegrees,DateUTC
12:15 AM,24.6,17.6,75,30.15,10.0,Calm,Calm,-,N/A,,Clear,0,2014-03-05 06:15:00
12:35 AM,24.6,18.0,76,30.15,10.0,Calm,Calm,-,N/A,,Clear,0,2014-03-05 06:35:00
12:50 AM,24.3,17.6,76,30.16,10.0,Calm,Calm,-,N/A,,Clear,0,2014-03-05 06:50:00
1:15 AM,23.2,16.9,77,30.16,10.0,Calm,Calm,-,N/A,,Clear,0,2014-03-05 07:15:00
1:35 AM,22.8,17.4,80,30.17,10.0,Calm,Calm,-,N/A,,Clear,0,2014-03-05 07:35:00
1:55 AM,22.8,16.9,78,30.16,10.0,Calm,Calm,-,N/A,,Clear,0,2014-03-05 07:55:00
2:15 AM,23.2,17.2,78,30.16,10.0,Calm,Calm,-,N/A,,Clear,0,2014-03-05 08:15:00
2:35 AM,23.0,17.8,80,30.16,10.0,Calm,Calm,-,N/A,,Clear,0,2014-03-05 08:35:00
2:55 AM,22.8,17.6,80,30.16,10.0,Calm,Calm,-,N/A,,Clear,0,2014-03-05 08:55:00
3:15 AM,23.0,17.4,79,30.17,10.0,Calm,Calm,-,N/A,,Clear,0,2014-03-05 09:15:00
3:35 AM,22.6,17.1,79,30.18,10.0,Calm,Calm,-,N/A,,Clear,0,2014-03-05 09:35:00
3:55 AM,22.5,17.1,80,30.18,10.0,Calm,Calm,-,N/A,,Clear,0,2014-03-05 09:55:00
4:15 AM,22.6,17.1,79,30.19,10.0,Calm,Calm,-,N/A,,Clear,0,2014-03-05 10:15:00
4:35 AM,22.5,16.5,78,30.20,10.0,Calm,Calm,-,N/A,,Clear,0,2014-03-05 10:35:00
4:55 AM,22.5,16.7,79,30.20,10.0,Calm,Calm,-,N/A,,Clear,0,2014-03-05 10:55:00
5:15 AM,22.1,16.7,80,30.20,10.0,Calm,Calm,-,N/A,,Clear,0,2014-03-05 11:15:00
5:30 AM,22.1,16.7,80,30.20,10.0,Calm,Calm,-,N/A,,Clear,0,2014-03-05 11:30:00
5:55 AM,21.9,16.7,80,30.20,10.0,Calm,Calm,-,N/A,,Clear,0,2014-03-05 11:55:00
6:15 AM,21.9,16.7,80,30.20,10.0,Calm,Calm,-,N/A,,Clear,0,2014-03-05 12:15:00
6:35 AM,22.1,17.1,81,30.21,10.0,Calm,Calm,-,N/A,,Clear,0,2014-03-05 12:35:00
6:55 AM,22.6,17.4,80,30.21,10.0,Calm,Calm,-,N/A,,Clear,0,2014-03-05 12:55:00
7:03 AM,23.0,17.6,80,30.22,10.0,Calm,Calm,-,N/A,,Clear,0,2014-03-05 13:03:00
7:15 AM,23.5,17.6,78,30.22,10.0,Calm,Calm,-,N/A,,Clear,0,2014-03-05 13:15:00
7:35 AM,24.1,18.0,77,30.22,10.0,Calm,Calm,-,N/A,,Clear,0,2014-03-05 13:35:00
7:55 AM,25.0,18.3,76,30.23,10.0,Calm,Calm,-,N/A,,Clear,0,2014-03-05 13:55:00
8:15 AM,27.1,19.4,73,30.24,10.0,Calm,Calm,-,N/A,,Clear,0,2014-03-05 14:15:00
8:35 AM,27.9,19.6,71,30.24,10.0,Calm,Calm,-,N/A,,Clear,0,2014-03-05 14:35:00
8:55 AM,29.7,20.3,68,30.25,10.0,Calm,Calm,-,N/A,,Clear,0,2014-03-05 14:55:00
9:15 AM,30.0,20.3,67,30.25,10.0,Calm,Calm,-,N/A,,Clear,0,2014-03-05 15:15:00
9:35 AM,30.9,20.8,66,30.26,10.0,East,11.5,-,N/A,,Clear,90,2014-03-05 15:35:00
9:55 AM,31.8,21.0,64,30.26,10.0,East,11.5,-,N/A,,Clear,80,2014-03-05 15:55:00
10:15 AM,32.9,21.4,63,30.26,10.0,East,9.2,-,N/A,,Clear,100,2014-03-05 16:15:00
10:35 AM,33.1,21.2,62,30.26,10.0,East,6.9,-,N/A,,Clear,100,2014-03-05 16:35:00
10:55 AM,34.2,22.1,61,30.26,10.0,East,11.5,-,N/A,,Clear,80,2014-03-05 16:55:00
11:15 AM,34.2,19.9,56,30.25,10.0,East,9.2,-,N/A,,Clear,80,2014-03-05 17:15:00
11:35 AM,34.7,19.2,53,30.25,10.0,East,8.1,-,N/A,,Clear,90,2014-03-05 17:35:00
11:55 AM,35.6,19.2,51,30.25,10.0,East,10.4,-,N/A,,Clear,80,2014-03-05 17:55:00
12:15 PM,36.1,19.0,50,30.24,10.0,East,8.1,-,N/A,,Clear,90,2014-03-05 18:15:00
12:35 PM,37.0,19.8,50,30.23,10.0,ESE,9.2,-,N/A,,Clear,110,2014-03-05 18:35:00
12:55 PM,36.0,19.8,52,30.23,10.0,ENE,6.9,-,N/A,,Clear,60,2014-03-05 18:55:00
1:15 PM,36.9,19.8,50,30.22,10.0,NE,8.1,-,N/A,,Clear,50,2014-03-05 19:15:00
1:35 PM,37.9,20.5,49,30.22,10.0,ENE,6.9,-,N/A,,Clear,70,2014-03-05 19:35:00
1:55 PM,37.9,18.1,45,30.22,10.0,ENE,6.9,-,N/A,,Clear,70,2014-03-05 19:55:00
2:15 PM,38.8,23.5,54,30.22,10.0,ENE,8.1,-,N/A,,Clear,70,2014-03-05 20:15:00
2:35 PM,38.1,22.5,53,30.22,10.0,NE,9.2,-,N/A,,Clear,40,2014-03-05 20:35:00
2:55 PM,36.9,25.0,62,30.22,10.0,NE,13.8,-,N/A,,Clear,40,2014-03-05 20:55:00
3:15 PM,35.4,23.9,63,30.23,10.0,NE,11.5,-,N/A,,Clear,50,2014-03-05 21:15:00
3:35 PM,35.1,23.5,63,30.23,10.0,NE,15.0,-,N/A,,Clear,50,2014-03-05 21:35:00
3:55 PM,34.9,23.5,63,30.23,10.0,NE,12.7,17.3,N/A,,Clear,50,2014-03-05 21:55:00
4:15 PM,34.2,25.2,70,30.24,10.0,NE,11.5,-,N/A,,Clear,40,2014-03-05 22:15:00
4:35 PM,33.8,24.8,70,30.24,10.0,NE,15.0,-,N/A,,Clear,50,2014-03-05 22:35:00
4:55 PM,33.1,24.8,72,30.24,10.0,NE,12.7,17.3,N/A,,Clear,50,2014-03-05 22:55:00
5:15 PM,32.7,24.6,72,30.25,10.0,NE,9.2,18.4,N/A,,Clear,40,2014-03-05 23:15:00
5:35 PM,32.0,24.8,75,30.25,10.0,NE,12.7,-,N/A,,Clear,40,2014-03-05 23:35:00
5:55 PM,31.6,24.4,75,30.26,10.0,NE,12.7,-,N/A,,Clear,40,2014-03-05 23:55:00
6:15 PM,30.9,23.9,75,30.27,10.0,NE,12.7,18.4,N/A,,Clear,40,2014-03-06 00:15:00
6:35 PM,30.6,23.7,76,30.27,10.0,NE,13.8,17.3,N/A,,Clear,50,2014-03-06 00:35:00
6:55 PM,30.2,23.0,75,30.28,10.0,ENE,12.7,18.4,N/A,,Clear,60,2014-03-06 00:55:00
7:15 PM,30.0,22.1,72,30.27,10.0,NE,12.7,-,N/A,,Clear,50,2014-03-06 01:15:00
7:35 PM,29.7,21.9,73,30.27,10.0,NE,12.7,-,N/A,,Clear,50,2014-03-06 01:35:00
7:55 PM,29.1,23.0,78,30.28,10.0,NE,9.2,-,N/A,,Clear,50,2014-03-06 01:55:00
8:15 PM,28.8,23.0,79,30.28,10.0,NE,9.2,-,N/A,,Scattered Clouds,40,2014-03-06 02:15:00
8:35 PM,28.4,22.6,79,30.28,10.0,NE,9.2,-,N/A,,Scattered Clouds,50,2014-03-06 02:35:00
8:55 PM,27.5,23.0,83,30.29,10.0,NE,9.2,-,N/A,,Clear,40,2014-03-06 02:55:00
9:15 PM,27.5,23.0,83,30.30,10.0,NE,10.4,-,N/A,,Clear,40,2014-03-06 03:15:00
9:35 PM,27.1,23.0,84,30.30,10.0,NE,11.5,-,N/A,,Clear,40,2014-03-06 03:35:00
9:55 PM,26.6,23.0,86,30.31,7.0,NE,9.2,-,N/A,,Clear,50,2014-03-06 03:55:00
10:15 PM,26.6,23.0,86,30.31,7.0,NE,8.1,-,N/A,,Clear,40,2014-03-06 04:15:00
10:35 PM,26.1,23.0,88,30.31,7.0,NNE,10.4,-,N/A,,Clear,30,2014-03-06 04:35:00
10:55 PM,25.7,23.0,89,30.31,7.0,NNE,9.2,-,N/A,,Clear,30,2014-03-06 04:55:00
11:15 PM,25.5,22.6,89,30.31,7.0,NE,9.2,-,N/A,,Clear,40,2014-03-06 05:15:00
11:35 PM,25.2,22.6,90,30.30,7.0,NE,11.5,-,N/A,,Clear,40,2014-03-06 05:35:00
11:55 PM,25.3,22.3,88,30.31,7.0,NE,11.5,-,N/A,,Clear,40,2014-03-06 05:55:00